RYR538 EGNX-EIDW

Flight info

Callsign RYR538
Flight time 0h 41m
Altitude 24000
Route TNT Q4 WAL L10 PENIL L28 LELDO M145 BAGSO BAGSO4L
Aircraft B38M/M-SDE1FGHILORVWXY/HB1

Departure

Time 2026-05-06 18:34
Airport East Midlands Airport (EGNX)

Arrival

Time 2026-05-06 19:16
Airport Dublin Airport (EIDW)
Time Latitude Longitude Altitude Speed Heading
2026-05-06 18:13 52.82729 -1.32999 303 ft 0 kts 178°
2026-05-06 18:26 52.82732 -1.32999 303 ft 3 kts 178°
2026-05-06 18:26 52.82758 -1.33000 303 ft 3 kts 178°
2026-05-06 18:26 52.82780 -1.32997 303 ft 4 kts 208°
2026-05-06 18:27 52.82793 -1.32968 304 ft 4 kts 263°
2026-05-06 18:27 52.82794 -1.32942 303 ft 1 kts 268°
2026-05-06 18:27 52.82794 -1.32939 303 ft 0 kts 268°
2026-05-06 18:29 52.82794 -1.32942 303 ft 1 kts 268°
2026-05-06 18:29 52.82793 -1.32976 304 ft 4 kts 268°
2026-05-06 18:30 52.82791 -1.33045 303 ft 7 kts 266°
2026-05-06 18:30 52.82797 -1.33141 303 ft 9 kts 302°
2026-05-06 18:30 52.82863 -1.33163 303 ft 11 kts 358°
2026-05-06 18:30 52.82922 -1.33228 305 ft 11 kts 279°
2026-05-06 18:31 52.82921 -1.33349 310 ft 10 kts 268°
2026-05-06 18:31 52.82917 -1.33483 309 ft 13 kts 266°
2026-05-06 18:31 52.82913 -1.33658 306 ft 16 kts 270°
2026-05-06 18:31 52.82917 -1.33850 310 ft 17 kts 258°
2026-05-06 18:32 52.82907 -1.34070 303 ft 22 kts 268°
2026-05-06 18:32 52.82907 -1.34288 307 ft 17 kts 272°
2026-05-06 18:32 52.82907 -1.34483 308 ft 19 kts 268°
2026-05-06 18:32 52.82933 -1.34658 305 ft 13 kts 338°
2026-05-06 18:33 52.82995 -1.34666 305 ft 14 kts 359°
2026-05-06 18:33 52.83068 -1.34622 306 ft 10 kts 78°
2026-05-06 18:33 52.83069 -1.34584 306 ft 0 kts 88°
2026-05-06 18:33 52.83069 -1.34541 304 ft 11 kts 89°
2026-05-06 18:34 52.83079 -1.34023 306 ft 84 kts 88°
2026-05-06 18:34 52.83104 -1.32656 315 ft 149 kts 87°
2026-05-06 18:34 52.83139 -1.30847 921 ft 163 kts 88°
2026-05-06 18:34 52.83059 -1.29045 2039 ft 152 kts 93°
2026-05-06 18:35 52.82952 -1.27232 2589 ft 167 kts 91°
2026-05-06 18:35 52.83173 -1.25287 2974 ft 181 kts 59°
2026-05-06 18:35 52.84093 -1.23707 3318 ft 205 kts 27°
2026-05-06 18:35 52.85492 -1.23214 3963 ft 213 kts 355°
2026-05-06 18:36 52.86919 -1.24030 4475 ft 233 kts 325°
2026-05-06 18:36 52.88008 -1.26122 5052 ft 249 kts 305°
2026-05-06 18:36 52.89034 -1.28532 5650 ft 261 kts 306°
2026-05-06 18:36 52.90103 -1.31019 6416 ft 267 kts 306°
2026-05-06 18:37 52.91190 -1.33557 7171 ft 272 kts 305°
2026-05-06 18:37 52.92287 -1.36116 8029 ft 272 kts 305°
2026-05-06 18:37 52.93381 -1.38674 8890 ft 273 kts 305°
2026-05-06 18:37 52.94477 -1.41239 9768 ft 274 kts 305°
2026-05-06 18:38 52.95596 -1.43862 10344 ft 285 kts 305°
2026-05-06 18:38 52.96772 -1.46622 10710 ft 301 kts 305°
2026-05-06 18:38 52.98004 -1.49519 11231 ft 310 kts 305°
2026-05-06 18:38 52.99244 -1.52442 12058 ft 310 kts 305°
2026-05-06 18:39 53.00498 -1.55404 12765 ft 317 kts 305°
2026-05-06 18:39 53.01772 -1.58415 13586 ft 320 kts 304°
2026-05-06 18:39 53.03041 -1.61417 14343 ft 323 kts 304°
2026-05-06 18:40 53.05478 -1.67767 15829 ft 329 kts 289°
2026-05-06 18:40 53.06116 -1.71435 16592 ft 333 kts 286°
2026-05-06 18:40 53.06776 -1.75175 17292 ft 338 kts 286°
2026-05-06 18:40 53.07429 -1.78945 18022 ft 341 kts 286°
2026-05-06 18:41 53.08085 -1.82773 18662 ft 346 kts 285°
2026-05-06 18:41 53.08741 -1.86630 19277 ft 348 kts 285°
2026-05-06 18:41 53.09403 -1.90532 19882 ft 351 kts 285°
2026-05-06 18:41 53.10067 -1.94461 20486 ft 354 kts 285°
2026-05-06 18:42 53.10736 -1.98426 21074 ft 357 kts 285°
2026-05-06 18:42 53.11399 -2.02369 21654 ft 360 kts 285°
2026-05-06 18:42 53.12074 -2.06388 22324 ft 360 kts 285°
2026-05-06 18:42 53.12744 -2.10391 23069 ft 358 kts 285°
2026-05-06 18:43 53.13410 -2.14377 23750 ft 358 kts 285°
2026-05-06 18:43 53.14080 -2.18386 23984 ft 358 kts 286°
2026-05-06 18:43 53.15002 -2.22203 24003 ft 355 kts 297°
2026-05-06 18:43 53.16119 -2.25876 24021 ft 355 kts 296°
2026-05-06 18:44 53.17220 -2.29570 24024 ft 355 kts 296°
2026-05-06 18:44 53.18319 -2.33260 24025 ft 355 kts 296°
2026-05-06 18:44 53.19417 -2.36951 24019 ft 355 kts 296°
2026-05-06 18:44 53.20512 -2.40644 24020 ft 355 kts 296°
2026-05-06 18:45 53.21610 -2.44342 24020 ft 355 kts 296°
2026-05-06 18:45 53.22703 -2.48033 24026 ft 355 kts 296°
2026-05-06 18:45 53.23795 -2.51727 24022 ft 355 kts 296°
2026-05-06 18:45 53.24888 -2.55429 24021 ft 356 kts 296°
2026-05-06 18:46 53.25982 -2.59139 24015 ft 356 kts 296°
2026-05-06 18:46 53.27061 -2.62807 24017 ft 356 kts 296°
2026-05-06 18:46 53.28167 -2.66573 24014 ft 356 kts 296°
2026-05-06 18:46 53.29257 -2.70288 24014 ft 356 kts 296°
2026-05-06 18:47 53.30306 -2.74035 24006 ft 356 kts 290°
2026-05-06 18:47 53.31143 -2.77873 24031 ft 356 kts 290°
2026-05-06 18:47 53.31963 -2.81546 24022 ft 356 kts 290°
2026-05-06 18:47 53.32839 -2.85422 24021 ft 356 kts 291°
2026-05-06 18:48 53.33721 -2.89302 24022 ft 356 kts 291°
2026-05-06 18:48 53.34603 -2.93178 24020 ft 356 kts 291°
2026-05-06 18:48 53.35486 -2.97058 24020 ft 356 kts 291°
2026-05-06 18:48 53.36367 -3.00934 24021 ft 356 kts 291°
2026-05-06 18:49 53.37248 -3.04815 24019 ft 356 kts 291°
2026-05-06 18:49 53.38127 -3.08696 24016 ft 356 kts 291°
2026-05-06 18:49 53.39023 -3.12569 24012 ft 357 kts 295°
2026-05-06 18:49 53.40340 -3.16071 24036 ft 357 kts 306°
2026-05-06 18:50 53.41763 -3.19414 23991 ft 357 kts 305°
2026-05-06 18:50 53.43200 -3.22809 24014 ft 357 kts 305°
2026-05-06 18:50 53.44646 -3.26215 24012 ft 357 kts 305°
2026-05-06 18:50 53.46092 -3.29617 24008 ft 357 kts 305°
2026-05-06 18:51 53.47536 -3.33018 24008 ft 357 kts 305°
2026-05-06 18:51 53.48979 -3.36421 24008 ft 357 kts 305°
2026-05-06 18:51 53.50422 -3.39826 24010 ft 357 kts 305°
2026-05-06 18:51 53.51862 -3.43229 24010 ft 357 kts 305°
2026-05-06 18:52 53.53303 -3.46637 24010 ft 357 kts 305°
2026-05-06 18:52 53.54739 -3.50041 24010 ft 357 kts 305°
2026-05-06 18:52 53.56158 -3.53408 24006 ft 357 kts 305°
2026-05-06 18:52 53.57593 -3.56817 24007 ft 357 kts 305°
2026-05-06 18:53 53.59030 -3.60236 24007 ft 357 kts 305°
2026-05-06 18:53 53.60465 -3.63655 24005 ft 357 kts 305°
2026-05-06 18:53 53.61791 -3.67182 23981 ft 357 kts 294°
2026-05-06 18:53 53.62707 -3.71066 24013 ft 358 kts 292°
2026-05-06 18:54 53.63652 -3.74947 23987 ft 357 kts 292°
2026-05-06 18:54 53.64587 -3.78828 24013 ft 358 kts 292°
2026-05-06 18:54 53.65521 -3.82720 24007 ft 358 kts 292°
2026-05-06 18:54 53.66452 -3.86614 24008 ft 358 kts 292°
2026-05-06 18:55 53.67379 -3.90506 24010 ft 358 kts 292°
2026-05-06 18:55 53.68307 -3.94404 24012 ft 357 kts 292°
2026-05-06 18:55 53.69229 -3.98288 24007 ft 356 kts 292°
2026-05-06 18:55 53.70150 -4.02171 24007 ft 356 kts 292°
2026-05-06 18:56 53.71067 -4.06049 24005 ft 356 kts 291°
2026-05-06 18:56 53.71695 -4.10015 23614 ft 357 kts 276°
2026-05-06 18:56 53.71837 -4.14221 22936 ft 361 kts 275°
2026-05-06 18:56 53.72020 -4.18465 22326 ft 362 kts 274°
2026-05-06 18:57 53.72190 -4.22696 21950 ft 358 kts 274°
2026-05-06 18:57 53.72351 -4.26864 21560 ft 354 kts 274°
2026-05-06 18:57 53.72507 -4.31011 21165 ft 351 kts 274°
2026-05-06 18:57 53.72658 -4.35107 20777 ft 348 kts 274°
2026-05-06 18:58 53.72807 -4.39170 20388 ft 345 kts 274°
2026-05-06 18:58 53.72953 -4.43201 20003 ft 343 kts 273°
2026-05-06 18:58 53.73097 -4.47215 19554 ft 342 kts 273°
2026-05-06 18:58 53.73239 -4.51206 19167 ft 340 kts 273°
2026-05-06 18:59 53.73378 -4.55177 18804 ft 337 kts 273°
2026-05-06 18:59 53.73515 -4.59102 18476 ft 333 kts 273°
2026-05-06 18:59 53.73650 -4.62991 18096 ft 331 kts 273°
2026-05-06 18:59 53.73782 -4.66853 17699 ft 328 kts 273°
2026-05-06 19:00 53.73912 -4.70674 17324 ft 324 kts 273°
2026-05-06 19:00 53.74037 -4.74412 16965 ft 321 kts 272°
2026-05-06 19:00 53.74162 -4.78161 16604 ft 318 kts 272°
2026-05-06 19:00 53.74284 -4.81866 16238 ft 315 kts 272°
2026-05-06 19:01 53.74406 -4.85552 15832 ft 313 kts 272°
2026-05-06 19:01 53.74526 -4.89209 15489 ft 310 kts 272°
2026-05-06 19:01 53.74643 -4.92830 15155 ft 307 kts 272°
2026-05-06 19:01 53.74758 -4.96417 14811 ft 305 kts 272°
2026-05-06 19:02 53.74872 -4.99974 14470 ft 302 kts 272°
2026-05-06 19:02 53.74983 -5.03503 14130 ft 300 kts 272°
2026-05-06 19:02 53.75093 -5.07013 13789 ft 298 kts 272°
2026-05-06 19:02 53.75201 -5.10496 13413 ft 296 kts 272°
2026-05-06 19:03 53.75192 -5.13955 13028 ft 296 kts 259°
2026-05-06 19:03 53.74594 -5.17305 12611 ft 300 kts 252°
2026-05-06 19:03 53.73938 -5.20679 12290 ft 303 kts 252°
2026-05-06 19:03 53.73268 -5.24063 11954 ft 304 kts 252°
2026-05-06 19:04 53.72599 -5.27401 11621 ft 304 kts 251°
2026-05-06 19:04 53.71922 -5.30755 11290 ft 298 kts 251°
2026-05-06 19:04 53.71266 -5.33991 10971 ft 286 kts 251°
2026-05-06 19:04 53.70622 -5.37163 10621 ft 285 kts 251°
2026-05-06 19:05 53.69982 -5.40301 10353 ft 280 kts 251°
2026-05-06 19:05 53.69352 -5.43387 10215 ft 277 kts 251°
2026-05-06 19:05 53.68724 -5.46460 10088 ft 277 kts 251°
2026-05-06 19:05 53.68010 -5.49481 9863 ft 276 kts 239°
2026-05-06 19:06 53.66744 -5.51909 9487 ft 277 kts 225°
2026-05-06 19:06 53.65374 -5.54180 9143 ft 275 kts 225°
2026-05-06 19:06 53.64010 -5.56426 8800 ft 273 kts 225°
2026-05-06 19:06 53.62666 -5.58623 8469 ft 272 kts 225°
2026-05-06 19:07 53.61292 -5.60859 8127 ft 271 kts 225°
2026-05-06 19:07 53.60394 -5.62314 7893 ft 270 kts 225°
2026-05-06 19:07 53.58606 -5.65205 7455 ft 268 kts 225°
2026-05-06 19:07 53.57260 -5.67378 7121 ft 268 kts 225°
2026-05-06 19:08 53.55914 -5.69547 6783 ft 267 kts 225°
2026-05-06 19:08 53.54574 -5.71705 6452 ft 267 kts 224°
2026-05-06 19:08 53.53229 -5.73869 6087 ft 267 kts 224°
2026-05-06 19:08 53.51899 -5.76007 5714 ft 260 kts 224°
2026-05-06 19:09 53.50616 -5.78067 5385 ft 250 kts 224°
2026-05-06 19:09 53.49380 -5.80049 5059 ft 241 kts 225°
2026-05-06 19:09 53.48193 -5.81953 4815 ft 228 kts 225°
2026-05-06 19:09 53.47098 -5.83705 4581 ft 215 kts 225°
2026-05-06 19:10 53.46028 -5.85419 4272 ft 209 kts 224°
2026-05-06 19:10 53.44987 -5.87083 3978 ft 204 kts 224°
2026-05-06 19:10 53.43965 -5.88717 3684 ft 200 kts 224°
2026-05-06 19:10 53.42973 -5.90300 3443 ft 194 kts 223°
2026-05-06 19:11 53.42008 -5.91841 3189 ft 189 kts 223°
2026-05-06 19:11 53.41084 -5.93363 2998 ft 182 kts 230°
2026-05-06 19:11 53.40634 -5.95304 2921 ft 182 kts 263°
2026-05-06 19:11 53.40621 -5.97452 2998 ft 186 kts 270°
2026-05-06 19:12 53.40688 -5.99614 3031 ft 186 kts 271°
2026-05-06 19:12 53.40783 -6.01773 2900 ft 185 kts 273°
2026-05-06 19:12 53.40886 -6.03803 2715 ft 168 kts 273°
2026-05-06 19:12 53.40987 -6.05732 2494 ft 165 kts 273°
2026-05-06 19:13 53.41088 -6.07639 2300 ft 164 kts 272°
2026-05-06 19:13 53.41187 -6.09452 2098 ft 147 kts 272°
2026-05-06 19:13 53.41276 -6.11119 1896 ft 141 kts 271°
2026-05-06 19:13 53.41364 -6.12745 1704 ft 140 kts 271°
2026-05-06 19:14 53.41450 -6.14363 1496 ft 139 kts 271°
2026-05-06 19:14 53.41538 -6.15983 1314 ft 139 kts 272°
2026-05-06 19:14 53.41625 -6.17603 1114 ft 139 kts 272°
2026-05-06 19:14 53.41713 -6.19219 927 ft 140 kts 272°
2026-05-06 19:15 53.41799 -6.20834 769 ft 141 kts 272°
2026-05-06 19:15 53.41888 -6.22478 552 ft 141 kts 273°
2026-05-06 19:15 53.41978 -6.24119 384 ft 143 kts 272°
2026-05-06 19:15 53.42066 -6.25771 233 ft 139 kts 273°
2026-05-06 19:16 53.42141 -6.27153 216 ft 88 kts 275°
2026-05-06 19:16 53.42199 -6.27820 216 ft 32 kts 290°
2026-05-06 19:16 53.42252 -6.27998 214 ft 13 kts 300°
2026-05-06 19:16 53.42317 -6.28122 214 ft 16 kts 349°
2026-05-06 19:17 53.42361 -6.27990 213 ft 16 kts 93°
2026-05-06 19:17 53.42350 -6.27792 216 ft 18 kts 96°
2026-05-06 19:17 53.42336 -6.27566 215 ft 21 kts 96°
2026-05-06 19:17 53.42322 -6.27314 218 ft 23 kts 95°
2026-05-06 19:18 53.42306 -6.27037 221 ft 25 kts 95°
2026-05-06 19:18 53.42292 -6.26775 213 ft 22 kts 95°
2026-05-06 19:18 53.42278 -6.26508 217 ft 24 kts 94°
2026-05-06 19:18 53.42263 -6.26235 216 ft 23 kts 95°
2026-05-06 19:19 53.42278 -6.25964 215 ft 25 kts 63°
2026-05-06 19:19 53.42396 -6.25741 213 ft 27 kts 45°
2026-05-06 19:19 53.42528 -6.25512 213 ft 29 kts 46°
2026-05-06 19:19 53.42667 -6.25278 219 ft 24 kts 45°
2026-05-06 19:20 53.42775 -6.25096 213 ft 22 kts 42°
2026-05-06 19:20 53.42880 -6.24944 220 ft 15 kts 50°
2026-05-06 19:20 53.42914 -6.24894 213 ft 9 kts 17°
2026-05-06 19:20 53.42971 -6.24883 218 ft 8 kts
2026-05-06 19:21 53.42992 -6.24880 219 ft 0 kts
2026-05-06 19:21 53.42995 -6.24879 219 ft 2 kts
2026-05-06 19:21 53.43003 -6.24878 213 ft 0 kts